QPF
0.00 0.00 0.00 0.01 0.02 0.01 0.01 0.01 0.02 0.02 0.02 0.03 0.03 0.03 0.04 0.03 0.03 0.01 0.01 0.01 0.01 0.02 0.04 0.06 0.07 0.08 0.08 0.07 0.08 0.08 0.10 0.13 0.12 0.12 0.11 0.09 0.07 0.05 0.05 0.05 0.03 0.03 0.02 0.02
0.01 0.00 0.00 0.01 0.02 0.02 0.02 0.02 0.02 0.02 0.02 0.03 0.02 0.03 0.03 0.03 0.03 0.02 0.01 0.01 0.01 0.02 0.03 0.05 0.06 0.07 0.07 0.08 0.06 0.06 0.07 0.08 0.10 0.10 0.09 0.07 0.05 0.05 0.05 0.05 0.04 0.03 0.02 0.02
0.03 0.01 0.02 0.03 0.01 0.02 0.02 0.02 0.02 0.02 0.02 0.03 0.04 0.03 0.02 0.02 0.02 0.02 0.01 0.02 0.02 0.02 0.03 0.03 0.05 0.05 0.05 0.05 0.06 0.07 0.07 0.06 0.07 0.08 0.07 0.05 0.04 0.04 0.05 0.04 0.03 0.03 0.03 0.04
0.04 0.04 0.07 0.03 0.00 0.01 0.01 0.02 0.02 0.02 0.02 0.03 0.04 0.03 0.01 0.02 0.02 0.02 0.03 0.03 0.03 0.03 0.03 0.03 0.04 0.05 0.06 0.06 0.05 0.07 0.06 0.06 0.05 0.05 0.04 0.05 0.04 0.05 0.05 0.05 0.04 0.04 0.04 0.04
0.08 0.08 0.06 0.03 0.01 0.00 0.01 0.01 0.01 0.02 0.01 0.02 0.03 0.04 0.03 0.02 0.01 0.01 0.01 0.02 0.03 0.04 0.03 0.03 0.04 0.05 0.04 0.05 0.04 0.04 0.05 0.05 0.04 0.04 0.03 0.03 0.04 0.04 0.05 0.05 0.04 0.04 0.03 0.03
0.08 0.09 0.07 0.04 0.01 0.00 0.01 0.03 0.01 0.01 0.02 0.03 0.05 0.06 0.07 0.03 0.02 0.01 0.01 0.01 0.03 0.04 0.05 0.05 0.06 0.06 0.05 0.05 0.06 0.05 0.04 0.04 0.03 0.03 0.03 0.04 0.04 0.04 0.04 0.04 0.04 0.03 0.03 0.03
0.08 0.08 0.06 0.03 0.00 0.01 0.04 0.05 0.02 0.02 0.03 0.04 0.07 0.07 0.05 0.02 0.01 0.01 0.01 0.01 0.03 0.05 0.06 0.07 0.07 0.06 0.06 0.06 0.06 0.04 0.04 0.04 0.03 0.03 0.03 0.03 0.04 0.04 0.04 0.04 0.04 0.04 0.03 0.03
0.07 0.07 0.06 0.02 0.01 0.02 0.03 0.01 0.01 0.03 0.03 0.04 0.05 0.05 0.05 0.03 0.01 0.01 0.01 0.01 0.02 0.05 0.08 0.08 0.07 0.06 0.05 0.05 0.05 0.04 0.03 0.03 0.02 0.03 0.02 0.03 0.05 0.04 0.04 0.04 0.04 0.04 0.04 0.04
0.06 0.05 0.04 0.02 0.02 0.02 0.02 0.01 0.01 0.02 0.02 0.03 0.04 0.04 0.03 0.03 0.02 0.01 0.01 0.02 0.02 0.03 0.05 0.06 0.06 0.05 0.04 0.03 0.03 0.03 0.03 0.03 0.03 0.03 0.04 0.05 0.05 0.04 0.04 0.04 0.04 0.03 0.03 0.03
0.04 0.03 0.02 0.03 0.02 0.02 0.03 0.03 0.02 0.01 0.01 0.01 0.03 0.04 0.04 0.03 0.02 0.02 0.02 0.02 0.03 0.03 0.03 0.03 0.04 0.04 0.04 0.03 0.03 0.04 0.05 0.04 0.04 0.04 0.05 0.06 0.05 0.04 0.04 0.03 0.03 0.03 0.03 0.03
0.04 0.03 0.04 0.04 0.03 0.02 0.02 0.03 0.03 0.03 0.03 0.02 0.04 0.05 0.05 0.03 0.02 0.02 0.02 0.02 0.03 0.04 0.03 0.03 0.03 0.03 0.03 0.03 0.03 0.05 0.05 0.04 0.04 0.04 0.05 0.05 0.04 0.03 0.02 0.02 0.01 0.01 0.02 0.02
0.05 0.04 0.05 0.05 0.03 0.02 0.01 0.01 0.02 0.03 0.04 0.04 0.05 0.07 0.06 0.04 0.02 0.02 0.02 0.02 0.03 0.03 0.03 0.04 0.04 0.03 0.03 0.03 0.03 0.04 0.04 0.04 0.04 0.04 0.04 0.04 0.03 0.02 0.02 0.01 0.01 0.00 0.00 0.01
0.04 0.05 0.05 0.04 0.02 0.01 0.01 0.00 0.01 0.01 0.02 0.02 0.03 0.04 0.03 0.02 0.02 0.01 0.01 0.01 0.02 0.02 0.03 0.04 0.05 0.05 0.03 0.04 0.04 0.04 0.04 0.04 0.04 0.03 0.03 0.03 0.03 0.02 0.02 0.01 0.01 0.01 0.00 0.00
0.03 0.04 0.05 0.03 0.01 0.01 0.01 0.00 0.00 0.00 0.00 0.01 0.01 0.02 0.02 0.02 0.01 0.01 0.01 0.01 0.01 0.01 0.03 0.04 0.06 0.08 0.06 0.05 0.04 0.04 0.04 0.03 0.03 0.03 0.03 0.02 0.02 0.02 0.02 0.02 0.02 0.01 0.01 0.00
0.03 0.04 0.03 0.01 0.01 0.00 0.00 0.01 0.01 0.00 0.00 0.01 0.01 0.02 0.02 0.03 0.02 0.01 0.01 0.01 0.01 0.02 0.04 0.04 0.05 0.08 0.09 0.07 0.04 0.03 0.03 0.02 0.03 0.04 0.03 0.02 0.02 0.02 0.02 0.02 0.02 0.02 0.01 0.01
0.03 0.02 0.01 0.01 0.00 0.00 0.00 0.01 0.01 0.01 0.00 0.01 0.01 0.02 0.02 0.03 0.03 0.02 0.01 0.01 0.02 0.03 0.04 0.04 0.04 0.06 0.06 0.06 0.05 0.05 0.03 0.02 0.03 0.03 0.02 0.02 0.01 0.01 0.02 0.02 0.02 0.02 0.02 0.01
0.02 0.02 0.01 0.01 0.00 0.00 0.00 0.00 0.01 0.01 0.01 0.01 0.01 0.01 0.01 0.03 0.03 0.01 0.01 0.01 0.02 0.04 0.05 0.04 0.04 0.05 0.05 0.05 0.05 0.04 0.03 0.02 0.01 0.01 0.01 0.01 0.01 0.01 0.02 0.02 0.02 0.01 0.02 0.01
0.01 0.01 0.00 0.01 0.01 0.00 0.00 0.00 0.01 0.01 0.01 0.01 0.01 0.01 0.02 0.02 0.03 0.02 0.01 0.02 0.03 0.04 0.04 0.04 0.04 0.04 0.04 0.03 0.03 0.03 0.03 0.03 0.02 0.01 0.00 0.00 0.01 0.01 0.01 0.01 0.01 0.01 0.01 0.01
0.01 0.01 0.00 0.00 0.00 0.01 0.00 0.00 0.01 0.01 0.01 0.01 0.01 0.02 0.02 0.02 0.02 0.02 0.02 0.02 0.03 0.04 0.04 0.03 0.03 0.03 0.03 0.02 0.02 0.01 0.02 0.02 0.02 0.01 0.01 0.01 0.01 0.01 0.01 0.01 0.01 0.01 0.01 0.00
0.02 0.02 0.01 0.01 0.00 0.01 0.01 0.00 0.01 0.01 0.01 0.01 0.02 0.02 0.02 0.02 0.02 0.02 0.02 0.02 0.02 0.02 0.02 0.02 0.02 0.02 0.02 0.01 0.01 0.01 0.01 0.01 0.01 0.01 0.02 0.02 0.01 0.01 0.01 0.01 0.01 0.01 0.00 0.00
0.03 0.02 0.01 0.01 0.00 0.00 0.00 0.01 0.01 0.01 0.01 0.01 0.02 0.02 0.02 0.02 0.02 0.02 0.02 0.02 0.02 0.01 0.01 0.01 0.01 0.01 0.01 0.01 0.01 0.01 0.01 0.01 0.01 0.01 0.01 0.01 0.01 0.01 0.01 0.01 0.01 0.00 0.00 0.01
0.01 0.01 0.01 0.01 0.00 0.00 0.01 0.00 0.01 0.01 0.01 0.01 0.01 0.02 0.02 0.02 0.02 0.02 0.02 0.01 0.01 0.01 0.01 0.01 0.01 0.01 0.01 0.01 0.00 0.01 0.00 0.00 0.00 0.01 0.01 0.01 0.01 0.01 0.01 0.01 0.01 0.01 0.01 0.01
0.01 0.01 0.01 0.01 0.01 0.01 0.00 0.00 0.01 0.02 0.01 0.01 0.01 0.02 0.02 0.02 0.02 0.03 0.02 0.01 0.00 0.00 0.01 0.01 0.01 0.00 0.00 0.00 0.00 0.00 0.00 0.00 0.00 0.00 0.01 0.01 0.01 0.01 0.01 0.01 0.01 0.01 0.01 0.01
0.01 0.01 0.01 0.01 0.01 0.01 0.01 0.01 0.02 0.02 0.02 0.01 0.01 0.01 0.01 0.01 0.02 0.02 0.01 0.00 0.00 0.00 0.00 0.01 0.01 0.00 0.00 0.00 0.00 0.00 0.00 0.00 0.00 0.00 0.01 0.01 0.01 0.01 0.01 0.01 0.01 0.01 0.01 0.01
0.02 0.03 0.03 0.02 0.01 0.01 0.02 0.01 0.01 0.01 0.01 0.01 0.01 0.01 0.01 0.01 0.01 0.01 0.01 0.00 0.00 0.00 0.00 0.00 0.01 0.01 0.00 0.00 0.00 0.00 0.00 0.00 0.00 0.00 0.00 0.01 0.01 0.00 0.01 0.01 0.01 0.01 0.01 0.01
0.03 0.04 0.03 0.03 0.02 0.02 0.01 0.01 0.01 0.01 0.02 0.02 0.01 0.01 0.01 0.01 0.01 0.01 0.01 0.00 0.00 0.00 0.00 0.00 0.00 0.00 0.00 0.00 0.00 0.00 0.00 0.00 0.00 0.00 0.00 0.00 0.00 0.00 0.01 0.01 0.01 0.00 0.00 0.00
0.03 0.03 0.03 0.02 0.02 0.01 0.01 0.01 0.00 0.01 0.01 0.02 0.01 0.01 0.01 0.02 0.01 0.01 0.00 0.00 0.00 0.00 0.00 0.00 0.00 0.00 0.00 0.00 0.00 0.00 0.00 0.00 0.00 0.00 0.00 0.00 0.00 0.00 0.00 0.00 0.00 0.00 0.00 0.00
MSLP
1009.96 1009.63 1009.26 1008.84 1008.37 1007.87 1007.33 1006.76 1006.17 1005.58 1005.01 1004.49 1004.07 1003.77 1003.62 1003.64 1003.84 1004.19 1004.69 1005.29 1005.94 1006.60 1007.22 1007.76 1008.20 1008.50 1008.66 1008.69 1008.60 1008.41 1008.16 1007.89 1007.62 1007.41 1007.27 1007.25 1007.34 1007.57 1007.91 1008.35 1008.87 1009.43 1010.01 1010.57
1009.76 1009.33 1008.82 1008.23 1007.58 1006.90 1006.21 1005.53 1004.91 1004.35 1003.89 1003.54 1003.33 1003.26 1003.34 1003.56 1003.91 1004.37 1004.92 1005.54 1006.18 1006.82 1007.42 1007.95 1008.38 1008.69 1008.87 1008.91 1008.81 1008.60 1008.30 1007.96 1007.62 1007.33 1007.14 1007.08 1007.17 1007.42 1007.83 1008.36 1008.98 1009.64 1010.31 1010.95
1009.26 1008.75 1008.13 1007.42 1006.65 1005.85 1005.07 1004.36 1003.75 1003.27 1002.95 1002.80 1002.82 1002.99 1003.30 1003.71 1004.21 1004.77 1005.37 1005.98 1006.58 1007.16 1007.68 1008.14 1008.50 1008.76 1008.89 1008.88 1008.74 1008.49 1008.15 1007.77 1007.40 1007.09 1006.89 1006.85 1007.00 1007.32 1007.82 1008.45 1009.18 1009.94 1010.68 1011.37
1008.52 1007.93 1007.23 1006.44 1005.60 1004.76 1003.96 1003.27 1002.73 1002.38 1002.23 1002.29 1002.54 1002.94 1003.46 1004.06 1004.70 1005.34 1005.96 1006.54 1007.06 1007.53 1007.93 1008.26 1008.49 1008.63 1008.65 1008.56 1008.36 1008.06 1007.70 1007.31 1006.95 1006.67 1006.54 1006.58 1006.81 1007.25 1007.85 1008.60 1009.42 1010.26 1011.06 1011.77
1007.69 1007.01 1006.25 1005.42 1004.55 1003.71 1002.94 1002.32 1001.89 1001.68 1001.71 1001.98 1002.44 1003.06 1003.77 1004.53 1005.27 1005.97 1006.59 1007.11 1007.54 1007.87 1008.10 1008.26 1008.32 1008.30 1008.19 1007.99 1007.72 1007.37 1007.00 1006.64 1006.34 1006.15 1006.11 1006.27 1006.64 1007.20 1007.92 1008.77 1009.67 1010.57 1011.40 1012.12
1006.95 1006.19 1005.36 1004.50 1003.63 1002.81 1002.11 1001.57 1001.26 1001.20 1001.39 1001.83 1002.47 1003.26 1004.13 1005.00 1005.83 1006.56 1007.16 1007.61 1007.93 1008.11 1008.18 1008.14 1008.03 1007.84 1007.59 1007.28 1006.93 1006.56 1006.20 1005.90 1005.69 1005.62 1005.72 1006.02 1006.52 1007.21 1008.04 1008.97 1009.92 1010.85 1011.68 1012.39
1006.48 1005.63 1004.74 1003.85 1002.98 1002.20 1001.55 1001.10 1000.88 1000.93 1001.25 1001.82 1002.60 1003.50 1004.47 1005.42 1006.30 1007.03 1007.61 1008.00 1008.20 1008.25 1008.16 1007.96 1007.68 1007.34 1006.96 1006.56 1006.16 1005.79 1005.47 1005.25 1005.15 1005.21 1005.46 1005.90 1006.54 1007.33 1008.25 1009.23 1010.21 1011.13 1011.94 1012.62
1006.38 1005.44 1004.50 1003.58 1002.71 1001.95 1001.34 1000.94 1000.79 1000.91 1001.30 1001.94 1002.78 1003.75 1004.76 1005.75 1006.64 1007.37 1007.91 1008.25 1008.38 1008.32 1008.12 1007.79 1007.39 1006.94 1006.46 1006.00 1005.58 1005.22 1004.97 1004.83 1004.85 1005.05 1005.43 1006.00 1006.75 1007.62 1008.59 1009.58 1010.56 1011.45 1012.22 1012.84
1006.64 1005.65 1004.67 1003.73 1002.86 1002.10 1001.51 1001.13 1001.00 1001.13 1001.53 1002.18 1003.02 1003.98 1004.99 1005.97 1006.85 1007.57 1008.09 1008.40 1008.49 1008.38 1008.11 1007.72 1007.25 1006.74 1006.22 1005.74 1005.32 1005.01 1004.82 1004.78 1004.91 1005.22 1005.71 1006.38 1007.19 1008.11 1009.09 1010.07 1011.00 1011.84 1012.55 1013.12
1007.16 1006.15 1005.16 1004.22 1003.34 1002.59 1002.00 1001.61 1001.46 1001.56 1001.92 1002.51 1003.30 1004.21 1005.18 1006.12 1006.97 1007.68 1008.19 1008.50 1008.58 1008.48 1008.21 1007.81 1007.33 1006.81 1006.30 1005.84 1005.46 1005.20 1005.08 1005.12 1005.34 1005.74 1006.31 1007.03 1007.87 1008.79 1009.74 1010.68 1011.55 1012.31 1012.95 1013.46
1007.72 1006.75 1005.79 1004.87 1004.02 1003.28 1002.68 1002.27 1002.08 1002.13 1002.42 1002.93 1003.63 1004.46 1005.35 1006.23 1007.05 1007.74 1008.26 1008.59 1008.71 1008.65 1008.43 1008.08 1007.64 1007.17 1006.71 1006.30 1005.97 1005.77 1005.71 1005.82 1006.10 1006.55 1007.16 1007.89 1008.72 1009.61 1010.50 1011.37 1012.15 1012.84 1013.40 1013.84
1008.10 1007.21 1006.33 1005.47 1004.67 1003.97 1003.39 1002.98 1002.76 1002.75 1002.97 1003.39 1003.99 1004.73 1005.53 1006.35 1007.13 1007.80 1008.34 1008.71 1008.90 1008.91 1008.77 1008.50 1008.15 1007.76 1007.37 1007.02 1006.76 1006.62 1006.62 1006.77 1007.08 1007.54 1008.15 1008.86 1009.65 1010.47 1011.29 1012.06 1012.75 1013.35 1013.84 1014.22
1008.09 1007.32 1006.55 1005.80 1005.09 1004.46 1003.94 1003.56 1003.35 1003.33 1003.49 1003.85 1004.37 1005.02 1005.75 1006.50 1007.24 1007.91 1008.46 1008.87 1009.12 1009.22 1009.18 1009.01 1008.76 1008.46 1008.15 1007.88 1007.68 1007.59 1007.62 1007.80 1008.11 1008.57 1009.14 1009.80 1010.52 1011.26 1011.98 1012.66 1013.26 1013.77 1014.19 1014.52
1007.60 1006.96 1006.33 1005.71 1005.14 1004.63 1004.21 1003.92 1003.77 1003.77 1003.94 1004.27 1004.74 1005.33 1006.00 1006.70 1007.40 1008.05 1008.61 1009.06 1009.37 1009.54 1009.59 1009.52 1009.36 1009.15 1008.92 1008.72 1008.58 1008.52 1008.58 1008.75 1009.06 1009.48 1010.00 1010.60 1011.24 1011.89 1012.51 1013.09 1013.61 1014.05 1014.40 1014.69
1006.63 1006.13 1005.63 1005.17 1004.76 1004.41 1004.15 1004.00 1003.96 1004.05 1004.27 1004.62 1005.09 1005.66 1006.29 1006.95 1007.61 1008.24 1008.79 1009.25 1009.60 1009.83 1009.93 1009.94 1009.86 1009.72 1009.57 1009.42 1009.32 1009.30 1009.36 1009.54 1009.82 1010.20 1010.66 1011.19 1011.74 1012.30 1012.84 1013.34 1013.77 1014.14 1014.45 1014.69
1005.31 1004.91 1004.56 1004.25 1004.02 1003.87 1003.80 1003.82 1003.95 1004.18 1004.50 1004.92 1005.43 1005.99 1006.61 1007.24 1007.86 1008.45 1008.98 1009.43 1009.78 1010.03 1010.18 1010.24 1010.21 1010.14 1010.03 1009.94 1009.87 1009.87 1009.94 1010.11 1010.36 1010.70 1011.10 1011.56 1012.04 1012.52 1012.98 1013.40 1013.77 1014.08 1014.35 1014.56
1003.84 1003.51 1003.27 1003.12 1003.06 1003.11 1003.25 1003.49 1003.81 1004.20 1004.67 1005.18 1005.75 1006.34 1006.94 1007.55 1008.13 1008.67 1009.16 1009.58 1009.91 1010.16 1010.32 1010.41 1010.42 1010.39 1010.33 1010.27 1010.24 1010.25 1010.33 1010.49 1010.71 1011.01 1011.37 1011.76 1012.18 1012.59 1012.98 1013.34 1013.66 1013.93 1014.16 1014.35
1002.42 1002.14 1001.98 1001.96 1002.07 1002.31 1002.67 1003.11 1003.63 1004.20 1004.80 1005.43 1006.06 1006.68 1007.29 1007.86 1008.40 1008.89 1009.33 1009.70 1010.00 1010.23 1010.39 1010.48 1010.52 1010.52 1010.50 1010.48 1010.48 1010.52 1010.60 1010.75 1010.96 1011.23 1011.54 1011.88 1012.24 1012.60 1012.93 1013.24 1013.51 1013.75 1013.95 1014.13
1001.25 1000.98 1000.89 1000.97 1001.23 1001.64 1002.17 1002.80 1003.49 1004.22 1004.96 1005.68 1006.37 1007.02 1007.62 1008.17 1008.66 1009.09 1009.47 1009.79 1010.06 1010.27 1010.42 1010.53 1010.59 1010.63 1010.65 1010.66 1010.69 1010.75 1010.85 1011.00 1011.19 1011.43 1011.70 1012.00 1012.31 1012.62 1012.91 1013.18 1013.41 1013.62 1013.80 1013.96
1000.43 1000.17 1000.12 1000.28 1000.64 1001.18 1001.85 1002.62 1003.46 1004.31 1005.14 1005.94 1006.67 1007.33 1007.92 1008.43 1008.88 1009.26 1009.59 1009.88 1010.12 1010.31 1010.47 1010.60 1010.70 1010.78 1010.84 1010.89 1010.96 1011.04 1011.15 1011.29 1011.46 1011.67 1011.91 1012.17 1012.43 1012.69 1012.94 1013.18 1013.39 1013.57 1013.73 1013.86
999.97 999.71 999.69 999.91 1000.35 1000.97 1001.75 1002.61 1003.53 1004.46 1005.35 1006.18 1006.93 1007.58 1008.15 1008.63 1009.04 1009.39 1009.69 1009.95 1010.18 1010.39 1010.57 1010.73 1010.88 1011.00 1011.11 1011.21 1011.30 1011.40 1011.51 1011.65 1011.80 1011.97 1012.17 1012.38 1012.60 1012.82 1013.03 1013.23 1013.41 1013.57 1013.71 1013.83
999.81 999.57 999.58 999.84 1000.32 1001.00 1001.82 1002.73 1003.69 1004.64 1005.54 1006.38 1007.11 1007.75 1008.29 1008.74 1009.12 1009.45 1009.74 1010.00 1010.25 1010.49 1010.71 1010.92 1011.12 1011.30 1011.45 1011.59 1011.71 1011.82 1011.92 1012.03 1012.15 1012.28 1012.43 1012.59 1012.76 1012.93 1013.11 1013.28 1013.43 1013.57 1013.69 1013.79
999.86 999.64 999.68 999.96 1000.47 1001.17 1002.00 1002.92 1003.87 1004.81 1005.70 1006.50 1007.21 1007.81 1008.32 1008.74 1009.11 1009.43 1009.73 1010.02 1010.30 1010.58 1010.86 1011.13 1011.39 1011.62 1011.81 1011.98 1012.11 1012.22 1012.31 1012.38 1012.45 1012.53 1012.62 1012.72 1012.84 1012.97 1013.11 1013.25 1013.38 1013.50 1013.60 1013.68
1000.01 999.83 999.90 1000.21 1000.72 1001.42 1002.24 1003.13 1004.05 1004.94 1005.78 1006.54 1007.20 1007.76 1008.24 1008.65 1009.01 1009.34 1009.66 1009.98 1010.30 1010.64 1010.97 1011.30 1011.61 1011.88 1012.11 1012.29 1012.42 1012.51 1012.56 1012.59 1012.61 1012.63 1012.66 1012.71 1012.78 1012.87 1012.97 1013.09 1013.20 1013.30 1013.39 1013.45
1000.18 1000.05 1000.15 1000.48 1001.00 1001.68 1002.47 1003.32 1004.19 1005.03 1005.81 1006.51 1007.11 1007.63 1008.08 1008.47 1008.82 1009.16 1009.50 1009.85 1010.22 1010.61 1010.99 1011.36 1011.71 1012.01 1012.25 1012.43 1012.55 1012.61 1012.63 1012.61 1012.57 1012.53 1012.51 1012.50 1012.53 1012.58 1012.66 1012.76 1012.86 1012.96 1013.04 1013.10
1000.33 1000.25 1000.38 1000.73 1001.25 1001.91 1002.68 1003.48 1004.29 1005.07 1005.79 1006.43 1006.98 1007.45 1007.86 1008.22 1008.57 1008.91 1009.26 1009.64 1010.04 1010.45 1010.86 1011.26 1011.62 1011.93 1012.18 1012.35 1012.44 1012.47 1012.44 1012.38 1012.29 1012.21 1012.14 1012.10 1012.09 1012.13 1012.19 1012.29 1012.39 1012.49 1012.57 1012.62
1000.43 1000.39 1000.57 1000.93 1001.46 1002.12 1002.85 1003.62 1004.38 1005.10 1005.76 1006.33 1006.83 1007.25 1007.62 1007.95 1008.28 1008.61 1008.96 1009.33 1009.74 1010.15 1010.57 1010.97 1011.34 1011.64 1011.87 1012.02 1012.09 1012.09 1012.03 1011.93 1011.81 1011.69 1011.60 1011.54 1011.52 1011.55 1011.62 1011.72 1011.83 1011.94 1012.04 1012.10
Thickness
5716 5724 5725 5723 5724 5726 5719 5717 5707 5708 5708 5711 5711 5708 5704 5699 5694 5688 5683 5678 5673 5668 5662 5658 5654 5650 5648 5644 5641 5637 5633 5628 5625 5623 5620 5617 5614 5613 5611 5610 5608 5607 5606 5605
5705 5718 5720 5717 5722 5723 5721 5720 5714 5711 5708 5716 5714 5709 5701 5695 5688 5682 5677 5673 5668 5662 5657 5652 5648 5645 5641 5638 5635 5631 5626 5623 5620 5618 5615 5612 5610 5607 5605 5603 5602 5600 5599 5597
5688 5706 5705 5699 5715 5715 5714 5718 5711 5701 5705 5710 5704 5698 5694 5690 5685 5678 5674 5668 5662 5657 5652 5647 5644 5640 5636 5633 5630 5625 5621 5618 5616 5614 5611 5607 5605 5602 5599 5597 5595 5593 5592 5590
5684 5687 5673 5705 5728 5722 5714 5713 5714 5709 5708 5706 5699 5694 5691 5688 5682 5675 5669 5664 5658 5653 5648 5644 5640 5636 5633 5629 5625 5621 5617 5614 5611 5609 5607 5604 5600 5597 5594 5591 5589 5587 5586 5584
5677 5673 5682 5706 5718 5716 5706 5702 5709 5703 5702 5700 5696 5688 5681 5680 5677 5671 5665 5660 5655 5650 5645 5641 5636 5633 5629 5624 5620 5617 5613 5610 5608 5605 5602 5599 5596 5593 5590 5587 5585 5583 5582 5579
5677 5667 5667 5694 5714 5721 5709 5691 5704 5701 5695 5693 5687 5671 5668 5673 5671 5665 5660 5655 5650 5645 5641 5636 5633 5629 5624 5620 5616 5613 5611 5608 5605 5602 5599 5595 5592 5590 5587 5585 5582 5580 5578 5576
5676 5671 5680 5703 5712 5711 5684 5681 5698 5696 5691 5687 5679 5670 5668 5668 5664 5660 5655 5650 5646 5642 5637 5633 5629 5626 5621 5617 5613 5611 5609 5605 5602 5599 5596 5594 5590 5587 5585 5583 5581 5578 5576 5574
5675 5666 5672 5703 5703 5690 5685 5694 5694 5691 5687 5681 5675 5670 5665 5662 5657 5653 5649 5646 5642 5637 5633 5629 5626 5622 5618 5615 5612 5610 5607 5604 5600 5598 5595 5593 5589 5586 5584 5582 5580 5578 5575 5573
5676 5677 5692 5698 5695 5695 5695 5690 5688 5685 5682 5677 5671 5666 5661 5656 5652 5650 5646 5642 5638 5634 5630 5626 5623 5621 5616 5613 5611 5608 5605 5601 5599 5596 5594 5591 5588 5585 5584 5582 5580 5578 5576 5573
5673 5683 5688 5694 5696 5695 5693 5687 5685 5683 5679 5674 5667 5662 5656 5652 5648 5646 5642 5638 5635 5631 5627 5623 5621 5618 5615 5613 5610 5607 5603 5600 5598 5595 5593 5590 5588 5586 5584 5582 5580 5577 5575 5573
5665 5677 5681 5686 5689 5689 5689 5687 5684 5680 5677 5671 5664 5659 5654 5649 5645 5643 5639 5635 5632 5629 5625 5622 5619 5617 5615 5612 5609 5605 5602 5599 5598 5596 5594 5590 5587 5585 5583 5581 5578 5575 5574 5572
5660 5673 5672 5675 5685 5686 5681 5681 5680 5676 5672 5669 5663 5656 5651 5647 5644 5641 5637 5634 5630 5627 5624 5621 5619 5616 5614 5612 5609 5605 5602 5600 5598 5596 5594 5591 5588 5584 5581 5579 5576 5574 5572 5569
5666 5673 5675 5680 5684 5682 5678 5679 5678 5674 5669 5665 5661 5656 5652 5648 5644 5640 5636 5633 5630 5627 5624 5621 5618 5615 5613 5612 5609 5605 5602 5600 5598 5597 5595 5592 5590 5587 5583 5579 5576 5574 5572 5570
5665 5666 5667 5674 5677 5678 5677 5677 5675 5672 5668 5664 5659 5655 5652 5647 5644 5639 5636 5634 5631 5628 5625 5622 5618 5615 5614 5611 5608 5605 5603 5601 5598 5597 5596 5594 5591 5589 5587 5585 5581 5578 5575 5571
5663 5666 5667 5673 5674 5676 5676 5674 5669 5666 5664 5660 5657 5653 5649 5645 5642 5639 5637 5635 5632 5628 5625 5622 5619 5616 5615 5612 5609 5606 5604 5602 5600 5598 5597 5596 5594 5592 5590 5589 5586 5584 5581 5577
5663 5666 5668 5669 5669 5672 5672 5670 5666 5663 5662 5659 5655 5651 5648 5645 5642 5640 5638 5635 5631 5628 5625 5623 5619 5618 5616 5613 5610 5607 5604 5602 5600 5599 5599 5598 5596 5594 5592 5591 5590 5588 5585 5583
5658 5659 5661 5664 5666 5669 5670 5670 5667 5664 5661 5658 5654 5651 5647 5644 5641 5638 5636 5635 5632 5629 5626 5624 5621 5619 5617 5615 5611 5609 5608 5605 5601 5601 5600 5599 5598 5597 5596 5594 5592 5591 5590 5588
5664 5664 5665 5666 5667 5668 5669 5670 5668 5664 5661 5659 5656 5651 5647 5643 5639 5638 5637 5635 5632 5629 5627 5625 5623 5620 5618 5616 5613 5611 5610 5609 5607 5604 5603 5601 5600 5599 5598 5596 5595 5593 5592 5590
5666 5667 5667 5668 5670 5670 5669 5667 5666 5664 5661 5660 5655 5650 5646 5644 5641 5639 5638 5635 5631 5628 5627 5626 5621 5620 5618 5616 5614 5613 5612 5611 5609 5607 5606 5604 5602 5602 5600 5599 5597 5596 5595 5593
5665 5666 5667 5669 5672 5670 5668 5667 5665 5662 5660 5658 5654 5650 5646 5645 5643 5640 5638 5635 5634 5633 5630 5627 5624 5622 5620 5619 5615 5616 5615 5614 5612 5610 5609 5607 5606 5604 5603 5602 5600 5599 5597 5596
5662 5663 5665 5668 5670 5670 5669 5667 5664 5661 5658 5657 5654 5650 5648 5646 5645 5641 5639 5636 5636 5635 5632 5627 5626 5625 5623 5621 5616 5618 5618 5616 5614 5612 5610 5608 5607 5605 5604 5603 5602 5600 5599 5597
5661 5663 5665 5667 5668 5668 5668 5667 5663 5660 5658 5656 5655 5653 5650 5647 5645 5643 5642 5640 5639 5635 5634 5632 5630 5627 5625 5620 5621 5620 5619 5618 5616 5614 5612 5610 5608 5606 5605 5604 5603 5602 5601 5599
5660 5662 5664 5664 5666 5666 5666 5664 5662 5660 5658 5657 5656 5654 5652 5650 5648 5644 5642 5643 5642 5637 5636 5636 5631 5626 5623 5622 5623 5622 5621 5619 5617 5615 5614 5612 5611 5610 5608 5606 5605 5603 5601 5600
5658 5660 5661 5663 5664 5663 5661 5661 5662 5661 5660 5659 5659 5657 5655 5652 5651 5650 5649 5645 5643 5639 5639 5635 5630 5627 5623 5625 5625 5624 5623 5621 5620 5618 5617 5616 5615 5613 5611 5608 5606 5604 5602 5600
5656 5658 5659 5659 5660 5661 5661 5662 5661 5660 5660 5660 5660 5660 5659 5658 5655 5654 5652 5650 5644 5640 5640 5636 5631 5628 5627 5628 5628 5627 5625 5624 5623 5621 5619 5617 5615 5614 5612 5609 5606 5604 5601 5599
5655 5657 5658 5659 5662 5663 5664 5663 5663 5663 5663 5662 5661 5662 5661 5660 5659 5656 5654 5652 5649 5643 5643 5641 5636 5631 5632 5632 5631 5630 5629 5627 5625 5623 5621 5619 5616 5614 5611 5608 5605 5602 5599 5596
5654 5656 5656 5659 5662 5664 5665 5665 5665 5666 5666 5665 5664 5664 5664 5662 5660 5659 5657 5655 5652 5649 5647 5645 5643 5640 5638 5636 5635 5634 5632 5630 5628 5625 5623 5619 5615 5612 5609 5606 5603 5600 5596 5593